Regional Weather Roundup
Issued by NWS

Home | Current Version | Previous Version | Text Only | Print | Product List | Glossary Off
Versions: 1 2 3 4 5 6 7 8 9 10 11 12 13 14 15 16 17 18 19 20 21 22 23 24 25 26 27 28 29 30 31 32 33 34 35 36 37 38 39 40 41 42 43 44 45 46 47 48 49 50

000
ASUS43 KLOT 250308
RWRIL

ILLINOIS REGIONAL WEATHER ROUNDUP
NATIONAL WEATHER SERVICE CHICAGO/ROMEOVILLE IL
1000 PM CDT SAT SEP 24 2016

NOTE: "FAIR" INDICATES FEW OR NO CLOUDS BELOW 12,000 FEET WITH NO
SIGNIFICANT WEATHER AND/OR OBSTRUCTIONS TO VISIBILITY.

* THESE STATIONS ARE NOT UNDER NWS QUALITY CONTROL. THEY ALSO MAY NOT
  REPORT WEATHER SUCH AS PRECIPITATION OR FOG.

ILZ001-002-007-009-015-016-024-250400-
NORTHWEST ILLINOIS

CITY           SKY/WX    TMP DP  RH WIND       PRES   REMARKS
MOLINE         CLEAR     73  67  81 E12       30.03F
STERLING*      CLEAR     68  65  90 E9        30.08F
SAVANNA*       CLEAR     68  65  88 E9        30.07F
$$

ILZ003-004-008-010-011-017-018-250400-
NORTH CENTRAL ILLINOIS

CITY           SKY/WX    TMP DP  RH WIND       PRES   REMARKS
ROCKFORD       CLEAR     66  62  87 E7        30.13S
FREEPORT*      CLEAR     63  62  94 E8        30.13F
ROCHELLE*      CLEAR     66  63  89 E8        30.12S
DE KALB*       CLEAR     64  63  94 E8        30.13F
$$

ILZ005-006-012>014-019>023-250400-
NORTHEAST ILLINOIS

CITY           SKY/WX    TMP DP  RH WIND       PRES   REMARKS
CHICAGO-OHARE  CLEAR     68  63  84 NE5       30.13S
CHICAGO-MIDWAY CLEAR     72  63  73 E8        30.13R
AURORA         CLEAR     67  63  87 E7        30.12F
LANSING*       CLEAR     68  66  92 E3        30.13S
JOLIET*        CLEAR     69  65  88 NE5       30.12S
WAUKEGAN       CLEAR     67  63  87 E7        30.14S
DUPAGE AIRPORT CLEAR     65  61  87 NE6       30.13S
KANKAKEE*      CLEAR     68  65  89 E6        30.12S
WHEELING       CLEAR     68  64  87 E3        30.15R
MORRIS*        CLEAR     66  63  90 CALM      30.11S
ROMEOVILLE*    CLEAR     67  66  97 E6        30.13R
NORTHERLY ISL    N/A     70  64  81 E12         N/A
$$

LMZ740>746-250400-
SOUTHERN LAKE MICHIGAN

STATION/POSITION SKY/WX   TEMP    WIND        PRES    VSBY  WAVE
                          AIR SEA DIR/SP/G                  HT/PER
                          (F)     (DEG/KT/KT) (MB)    (MI)  (FT/S)
SOUTHERN BUOY              70 72  100/ 16/ 17 1020.7R         2/ 4
WILMETTE HARBOR            69 65  120/ 10/ 14   N/A           3/ 4
HARRISON CRIB              72      90/ 15/ 17   N/A
BURNHAM HARBOR             70      90/  8/ 11   N/A
CALUMET HARBOR             71      70/  9/ 11 1019.6R
BURNS HARBOR               67      80/  5/ 10 1020.7R
MICHIGAN CITY              69      60/  7/  9   N/A
MICHIGAN CITY 6N           69 70   80/ 10/ 12   N/A           1/ 2
ST. JOSEPH                 67 70   90/ 12/ 14 1020.9R         1
$$

ILZ025>027-034>036-040-047-049-050-058-095>099-250400-
WEST-CENTRAL ILLINOIS

CITY           SKY/WX    TMP DP  RH WIND       PRES   REMARKS
QUINCY         CLEAR     73  66  78 SE6       30.04R
GALESBURG*     CLEAR     74  67  77 E9        30.05F
MACOMB*        CLEAR     71  66  85 E7        30.06S
JACKSONVILLE*  CLEAR     72  65  80 SE3       30.05S
PITTSFIELD*    CLEAR     71  67  89 E3        30.05S
$$

ILZ028>032-037-038-041>044-048-051>054-059>061-250400-
CENTRAL ILLINOIS

CITY           SKY/WX    TMP DP  RH WIND       PRES   REMARKS
PONTIAC        CLEAR     73  69  86 E7        30.11S
BLOOMINGTON    PTCLDY    73  67  81 E12       30.10R
DECATUR        CLEAR     70  63  78 E6        30.08R
PEORIA         CLEAR     77  68  73 E9        30.06S
LACON*         CLEAR     71  65  81 E7        30.07R
LINCOLN*       CLEAR     73  66  78 CALM      30.07R
SPRINGFIELD    CLEAR     71  65  81 CALM      30.06R
TAYLORVILLE    CLEAR     70  65  83 SE3       30.06R
$$

ILZ033-039-045-046-055>057-062-063-250400-
EAST-CENTRAL ILLINOIS

CITY           SKY/WX    TMP DP  RH WIND       PRES   REMARKS
CHAMPAIGN      CLEAR     73  66  78 E7        30.10R
RANTOUL*       CLEAR     75  68  80 E8        30.10S HAZE
MATTOON        CLEAR     73  66  78 SE5       30.07R
PARIS*         CLEAR     72  69  91 CALM      30.10R
$$

ILZ079-100>102-250400-
SOUTHWEST ILLINOIS

CITY           SKY/WX    TMP DP  RH WIND       PRES   REMARKS
ALTON          CLEAR     72  68  88 CALM      30.05R
BELLEVILLE     CLEAR     72  71  97 CALM      30.04R
CAHOKIA*       CLEAR     73  68  84 S5        30.04R
SPARTA*        CLEAR     73  69  89 SE3       30.06R
$$

ILZ064>066-069>071-074>076-080>082-084>086-088>090-092>094-250400-
SOUTH-CENTRAL ILLINOIS

CITY           SKY/WX    TMP DP  RH WIND       PRES   REMARKS
CARBONDALE     CLEAR     70  70 100 NE3       30.05R FOG
CAIRO*         CLEAR     72  69  90 CALM      30.04S
EFFINGHAM*     CLEAR     71  69  95 E3        30.08R
MARION         CLEAR     75  72  88 CALM      30.06S
MT. VERNON     CLEAR     70  64  83 CALM      30.07R
CENTRALIA*     CLEAR     72  71  97 CALM      30.05R
SALEM*         CLEAR     76  68  77 CALM      30.06S
METROPOLIS*    CLEAR     73  71  93 CALM      30.05S
$$

ILZ067-068-072-073-078-083-087-091-250400-
SOUTHEAST ILLINOIS

CITY           SKY/WX    TMP DP  RH WIND       PRES   REMARKS
LAWRENCEVILLE  CLEAR     74  67  78 E6        30.07S
FLORA*         CLEAR     72  69  90 CALM      30.06R
FAIRFIELD*       N/A     71  69  95 CALM      30.05R
HARRISBURG*    CLEAR     72  69  91 CALM      30.06R
ROBINSON*      CLEAR     70  67  92 CALM      30.08S
CARMI*         CLEAR     68  68  98 CALM      30.05S
$$

ABBREVIATIONS USED IN REMARKS
   TC - TEMPERATURE IN CELSIUS
  WCI - WIND CHILL INDEX
   HX - HEAT INDEX
  VSB - VISIBILITY
$$





USA.gov is the U.S. government's official web portal to all federal, state and local government web resources and services.